User: anonymous   Login
Location: Bijele Vode
(45.2833°N, 16.2000°E)
Time: 01:02:46
(UTC+00:00)
Language:

Cosmos 2279 Rocket - Orbit

View from above orbital plane
View from above orbital plane
View from above satellite
View from above satellite

Ground track
Ground track

The orbit data is extracted from the following two-line orbital elements,

1 23093U 94024B   20328.41290345 +.00000014 +00000-0 -11394-5 0  9998
2 23093 082.9464 260.7639 0011560 085.7638 274.4840 13.77834924804037
Epoch (UTC): 23 November 2020 09:54:34
Eccentricity: 0.0011560
inclination: 82.9464°
perigee height: 963 km
apogee height: 980 km
right ascension of ascending node: 260.7639°
argument of perigee: 85.7638°
revolutions per day: 13.77834924
mean anomaly at epoch: 274.4840°
orbit number at epoch: 80403

The dashed part of the orbit path shows where the satellite is in the earth's shadow,  

DLR